This is the latest recevied weather packets stored in our database for station/object KM4CNW. If no packets are shown the sender has not sent any weather packets the latest 10 day(s).
| Time | Temp. | Humidity | Pressure | Rain* | Wind** | Luminosity | Snow |
|---|---|---|---|---|---|---|---|
| 1777995217 | 24.44° C | 43% | 1010.9 hPa | 0 mm | - | 793 W/m² | - |
| 1777994915 | 24.44° C | 42% | 1010.8 hPa | 0 mm | - | 788 W/m² | - |
| 1777994612 | 23.89° C | 44% | 1010.8 hPa | 0 mm | - | 777 W/m² | - |
| 1777994312 | 23.89° C | 43% | 1011.1 hPa | 0 mm | - | 765 W/m² | - |
| 1777994009 | 23.89° C | 47% | 1010.9 hPa | 0 mm | - | 751 W/m² | - |
| 1777993705 | 23.33° C | 46% | 1011.1 hPa | 0 mm | - | 735 W/m² | - |
| 1777993403 | 22.78° C | 49% | 1011 hPa | 0 mm | - | 705 W/m² | - |
| 1777993097 | 22.78° C | 48% | 1011 hPa | 0 mm | - | 669 W/m² | - |
| 1777992796 | 22.78° C | 49% | 1010.6 hPa | 0 mm | - | 646 W/m² | - |
| 1777992493 | 22.78° C | 50% | 1010.9 hPa | 0 mm | - | 616 W/m² | - |
| 1777992192 | 22.22° C | 50% | 1011.1 hPa | 0 mm | - | 628 W/m² | - |
| 1777991888 | 21.67° C | 51% | 1011 hPa | 0 mm | - | 619 W/m² | - |
| 1777991585 | 21.67° C | 53% | 1011 hPa | 0 mm | - | 570 W/m² | - |
| 1777991282 | 21.67° C | 52% | 1010.8 hPa | 0 mm | - | 570 W/m² | - |
| 1777990979 | 21.67° C | 52% | 1010.9 hPa | 0 mm | - | 578 W/m² | - |
| 1777990677 | 21.11° C | 53% | 1010.9 hPa | 0 mm | - | 580 W/m² | - |
| 1777990374 | 21.11° C | 54% | 1010.7 hPa | 0 mm | - | 447 W/m² | - |
| 1777990070 | 20.56° C | 57% | 1010.9 hPa | 0 mm | - | 269 W/m² | - |
| 1777989767 | 20.56° C | 57% | 1010.9 hPa | 0 mm | - | 169 W/m² | - |
| 1777989464 | 20° C | 57% | 1010.9 hPa | 0 mm | - | 62 W/m² | - |
| 1777989160 | 20° C | 60% | 1010.8 hPa | 0 mm | - | 51 W/m² | - |
| 1777988856 | 20° C | 58% | 1010.7 hPa | 0 mm | - | 53 W/m² | - |
| 1777988554 | 20° C | 61% | 1010.9 hPa | 0 mm | - | 48 W/m² | - |
| 1777988250 | 19.44° C | 61% | 1011 hPa | 0 mm | - | 44 W/m² | - |
| 1777987947 | 19.44° C | 61% | 1010.6 hPa | 0 mm | - | 43 W/m² | - |
* Rain latest hour (hover to see other rain measurements)
** Current wind speed in m/s (hover to see current wind gust speed)